Location: Chotou?
(50.0668°N, 14.9593°E)
Time: 13:57:57
(UTC+00:00)

Daily predictions for brighter satellites

Satellite Brightness Start Highest point End
(mag) Time Altitude Azimuth Time Altitude Azimuth Time Altitude Azimuth
Cosmos 1745 Rocket 4.0 19:41:53 10° S 19:48:04 75° E 19:54:21 10° NNE
Landsat 7 3.9 19:44:17 10° SSE 19:49:00 68° ENE 19:53:44 10° N
USA 267 3.8 19:49:40 10° E 19:56:07 62° NNE 20:02:35 10° WNW
Meteor 1-21 Rocket 4.4 19:51:15 10° S 19:57:10 88° E 20:03:08 10° NNE
SPOT 1/Viking Rocket 3.7 19:52:17 10° SSE 19:57:23 68° ENE 20:02:32 10° N
Alouette 2 Rocket 3.6 19:56:44 10° N 20:00:27 70° ENE 20:05:18 10° SSE
Cosmos 1953 Rocket 4.1 19:57:17 10° SSE 20:01:18 39° E 20:05:20 10° NNE
Cosmos 2322 Rocket 2.7 19:57:16 10° SW 20:02:50 66° WNW 20:08:27 10° NNE
NOSS 7 (D) 3.6 20:02:03 10° SW 20:04:51 74° SE 20:07:31 10° NE
Cosmos 2237 4.2 19:59:47 10° SSW 20:05:31 81° ESE 20:11:18 10° NNE
Cosmos 2084 4.0 20:02:25 10° NW 20:06:50 55° NE 20:11:12 10° ESE
Cosmos 1328 3.8 20:03:41 10° S 20:07:37 65° E 20:11:34 10° NNE
SAR-Lupe-2 4.0 20:05:48 10° NNE 20:09:16 45° E 20:12:43 10° S
Cosmos 1455 3.0 20:07:46 10° NNW 20:11:30 50° W 20:15:14 10° S
Cosmos 1825 Rocket 3.6 20:12:31 10° S 20:16:58 82° E 20:21:27 10° NNE
ATLAS CENTAUR R/B 1.4 20:15:11 10° NW 20:18:52 59° NE 20:22:16 11° SE
Cosmos 1703 3.4 20:17:40 10° SSW 20:21:33 79° W 20:25:27 10° N
COSMOS 2428 3.3 20:17:33 10° S 20:22:44 38° ESE 20:27:56 10° NE
Cosmos 1844 4.0 20:18:07 10° NNW 20:23:51 66° WSW 20:29:29 10° SSE
Cosmos 2322 3.8 20:20:54 10° SSW 20:26:33 64° ESE 20:32:14 10° NE
Meteor 1-27 4.4 20:24:39 10° N 20:30:23 69° ENE 20:35:46 12° SSE
Cosmos 1869 4.3 20:27:08 10° N 20:30:47 33° ENE 20:33:50 13° SE
Cosmos 1709 Rocket 4.1 20:26:50 10° S 20:33:08 89° ESE 20:39:34 10° N
NOSS 3-3 (A) 4.2 20:29:34 10° SSW 20:35:07 46° ESE 20:41:22 10° NE
NOSS 3-3 (C) 4.2 20:29:41 10° SSW 20:35:15 46° ESE 20:41:29 10° NE
Terra 1.9 20:31:41 13° SSE 20:35:58 68° ENE 20:40:42 10° N
Cosmos 2237 Rocket 3.6 20:33:12 13° SE 20:36:37 21° E 20:40:46 10° NE
Atlas Centaur 2 4.2 20:34:01 10° SSW 20:36:47 13° S 20:38:47 12° SSE
CARTOSAT-1 3.6 20:32:57 11° S 20:37:08 79° WSW 20:41:29 10° NNW
Cosmos 2333 4.2 20:32:43 10° SSW 20:38:20 75° ESE 20:44:04 10° NNE
Cosmos 2219 Rocket 2.3 20:33:18 10° S 20:38:43 55° ESE 20:44:12 10° NE
Cosmos 2360 Rocket 2.8 20:35:08 10° SW 20:40:44 63° WNW 20:46:23 10° NNE
Cosmos 1538 Rocket 4.2 20:36:19 10° S 20:41:33 56° ESE 20:46:45 10° NNE
Cosmos 2184 Rocket 4.4 20:42:25 13° SSE 20:47:49 49° E 20:53:51 10° NNE
Cosmos 2333 Rocket 2.2 20:42:52 10° SSW 20:48:31 69° ESE 20:54:13 10° NNE
Cosmos 1315 Rocket 2.9 20:46:47 10° NNW 20:50:54 85° WSW 20:54:13 15° S
ATLAS 2AS CENTAUR R/B 3.4 20:44:10 10° NW 20:51:49 58° NE 20:58:49 10° ESE
Resurs 01 Rocket 4.2 20:50:06 10° SW 20:52:40 15° W 20:55:14 10° NW
Cosmos-2242 4.5 20:50:17 10° NNW 20:54:11 33° W 20:58:05 10° SSW
Cosmos 1818 4.2 20:50:50 10° SW 20:56:12 60° NW 21:01:38 10° NE
Cosmos 773 Rocket 4.2 20:53:14 10° SSW 20:58:33 77° WNW 21:03:53 10° NNE
Cosmos 2221 2.6 20:54:58 10° N 20:59:22 69° ENE 21:02:29 18° SSE
ERS-1 Rocket 3.7 20:56:51 10° S 21:01:40 50° W 21:06:35 10° NNW
GEOS 3 Rocket 4.0 20:56:45 10° NE 21:02:10 74° NW 21:07:32 10° SW
USA 215 3.2 20:58:52 10° ENE 21:05:25 67° SE 21:11:55 10° SW
Cosmos 2278 Rocket 2.2 21:03:11 10° NNW 21:08:54 82° ENE 21:13:09 18° SSE
Cosmos 1892 3.3 21:07:02 21° SSE 21:09:04 40° E 21:12:39 10° NNE
ATLAS 5 CENTAUR R/B 2.6 21:08:46 10° WSW 21:12:55 49° NW 21:17:40 10° NE
Cosmos 1844 Rocket 4.4 21:08:48 10° NW 21:13:10 24° WSW 21:17:31 10° SSW
Aureole 2 Rocket 4.4 21:13:31 10° NNE 21:15:17 15° NE 21:17:00 10° E
Gblst 52 Del rocket 4.5 21:09:58 10° WNW 21:15:36 59° SSW 21:20:33 16° SE
Cosmos 1943 Rocket 4.2 21:12:09 10° NNW 21:16:33 22° NE 21:20:57 10° E
SPOT 5 3.9 21:13:56 11° SSW 21:18:26 40° W 21:22:59 10° NNW
SL-16 R/B 3.8 21:18:56 15° SE 21:21:01 18° E 21:24:40 10° ENE
Lacrosse 5 rocket 3.3 21:18:00 10° WNW 21:21:44 30° N 21:25:16 10° ENE
Spot 4 4.3 21:20:00 19° SE 21:23:11 51° ENE 21:27:49 10° N
Cosmos 2056 Rocket 4.2 21:18:25 10° NNW 21:23:40 49° ENE 21:27:39 17° SE
Nadezhda 3 Rocket 4.1 21:18:14 10° N 21:24:38 71° ENE 21:29:11 20° SSE
Cosmos 2058 2.9 21:25:00 22° S 21:27:32 65° E 21:31:39 10° NNE
Cosmos 2154 Rocket 4.1 21:23:04 18° SSE 21:27:36 62° E 21:33:44 10° NNE
Cosmos 1408 3.1 21:29:05 27° SE 21:30:33 41° E 21:33:57 10° NNE
Meteor 2-17 Rocket 4.4 21:27:25 16° S 21:32:23 83° E 21:38:29 10° NNE
In-Cosmos 22 Rocket 4.0 21:29:55 18° S 21:33:58 80° E 21:39:19 10° NNE
Cosmos 2074 Rocket 4.1 21:29:15 13° SSW 21:34:57 79° W 21:41:13 10° N
TSX-5 3.9 21:32:09 10° NW 21:35:35 59° WSW 21:37:36 26° S
Cosmos 1076 Rocket 3.4 21:36:08 23° S 21:38:45 76° E 21:43:02 10° NNE
USA 267 3.3 21:34:05 18° SE 21:39:08 66° SW 21:45:42 10° WNW
Cosmos 1680 Rocket 3.6 21:35:41 20° S 21:39:19 59° ESE 21:44:35 10° NNE
CZ-4C R/B 4.2 21:39:02 10° NW 21:45:06 36° NNE 21:52:08 10° E
COSMOS 2455 4.0 21:43:18 10° NNW 21:48:58 39° NE 21:54:36 10° ESE
EO 1 Delta rocket 4.3 21:44:00 10° NNE 21:48:59 64° E 21:52:50 22° S
Cosmos 2151 3.5 21:47:18 27° SSE 21:49:13 44° E 21:53:18 10° NNE
Cosmos 923 Rocket 4.1 21:52:20 14° SSW 21:56:52 81° WNW 22:02:12 10° NNE
ATLAS CENTAUR R/B 3.1 21:54:58 10° WNW 21:57:20 16° WSW 21:58:26 15° SW
Cosmos 1825 2.2 21:58:08 33° SSE 21:59:39 63° E 22:03:25 10° NNE
ALOS 2 2.9 21:58:03 26° SE 22:00:23 57° ENE 22:04:42 10° N
Cosmos 1933 4.3 21:56:45 10° N 22:00:31 37° ENE 22:02:24 23° SE
Cosmos 1340 4.3 21:59:38 19° ESE 22:00:38 21° E 22:03:32 10° NE
Cosmos 1151 Rocket 3.8 21:56:55 10° N 22:01:04 42° ENE 22:03:13 24° SE
Cosmos 2369 Rocket 3.8 21:56:18 10° NNW 22:01:10 29° NE 22:06:00 10° ESE
Cosmos 1980 3.7 21:56:55 14° SSW 22:01:46 88° ESE 22:07:27 10° NNE
APEX 4.4 22:01:32 10° N 22:03:48 22° NE 22:05:07 16° E
Cosmos 44 3.9 22:05:15 28° SE 22:06:13 31° ESE 22:10:07 10° NE
COSMOS 2428 3.8 22:01:32 10° SW 22:06:57 44° NW 22:12:24 10° NNE
Cosmos 371 Rocket 3.8 22:04:00 10° NNW 22:08:47 52° ENE 22:11:47 22° SE
GP-B 3.5 22:05:02 10° N 22:09:23 51° E 22:11:23 29° SSE
Cosmos 1295 Rocket 4.5 22:06:31 21° SSW 22:10:50 84° W 22:16:59 10° N
Terra 4.0 22:11:00 10° SW 22:14:12 18° W 22:17:24 10° NW
Cosmos 1624 Rocket 4.0 22:08:58 10° NNW 22:14:12 71° WSW 22:16:57 28° S
NOSS 0 Rocket 4.2 22:08:07 10° SW 22:14:15 71° NW 22:20:27 10° NNE
NOSS 3-4 (A) 4.0 22:08:07 10° NW 22:14:57 61° SW 22:19:47 23° SSE
NOSS 3-4 (C) 4.0 22:08:13 10° NW 22:15:04 62° SW 22:19:55 23° SSE
Nimbus 7 Rocket 4.5 22:12:56 10° NNE 22:18:53 67° ESE 22:22:22 25° S
SL-4 R/B 2.1 22:19:54 27° NE 22:19:54 27° NE 22:21:29 10° N
Cosmos 2237 Rocket 2.4 22:14:58 13° SW 22:20:05 75° WNW 22:25:49 10° NNE
Genesis I 3.1 22:18:35 25° SW 22:20:46 83° SE 22:24:41 10° NE
Cosmos 1782 4.3 22:18:11 10° N 22:21:38 28° ENE 22:23:34 19° ESE
CREW DRAGON DEMO-1 DEB 3.7 22:22:53 33° ESE 22:22:53 33° ESE 22:24:58 10° E
Cosmos 2344 3.5 22:16:02 13° SSW 22:22:51 71° SE 22:30:59 10° NE
Cosmos 2219 Rocket 3.8 22:17:58 10° WSW 22:22:58 33° NW 22:28:02 10° NNE
Cosmos 1346 Rocket 4.1 22:28:04 24° ESE 22:29:12 28° E 22:32:36 10° NNE
Thor Agena Rocket 3.9 22:24:37 10° N 22:29:40 60° WNW 22:33:18 18° SW
Cosmos 2333 Rocket 4.1 22:28:24 10° WSW 22:33:18 29° NW 22:38:15 10° NNE
RESURS DK-1 4.2 22:35:57 10° NNW 22:39:32 27° NE 22:43:06 10° ESE
Cosmos 1515 Rocket 3.8 22:36:58 10° N 22:41:18 62° ENE 22:43:15 31° SSE
BREEZE-M DEB (TANK) 2.5 22:39:04 10° W 22:41:22 30° WSW 22:41:22 30° WSW
ATLAS 2AS CENTAUR R/B 3.3 22:35:36 10° NW 22:42:42 46° WSW 22:46:25 25° S
EO 1 Del DPAF 4.4 22:39:18 10° N 22:42:48 37° WNW 22:44:59 19° SW
Cosmos 1766 Rocket 3.6 22:44:24 31° SSW 22:46:26 75° W 22:50:52 10° N
USA 215 3.8 22:41:58 10° ENE 22:48:26 62° NNW 22:54:52 10° W
Cosmos 1328 Rocket 3.6 22:44:23 10° NNW 22:48:41 70° W 22:50:25 35° S
Aureole 2 Rocket 3.0 22:46:23 10° NW 22:48:58 32° WSW 22:48:59 32° WSW
Gbstr 26 Del rocket 3.7 22:49:28 30° SE 22:49:28 30° SE 22:52:49 10° E
Okean 3 Rocket 3.9 22:47:02 28° SSW 22:49:17 62° WNW 22:53:42 10° N
Cosmos 1606 3.3 22:47:14 10° NNW 22:51:00 48° W 22:52:19 33° SSW
Cosmos 2278 Rocket 4.0 22:48:26 10° WNW 22:52:17 19° W 22:54:59 14° SW
Cosmos 2297 4.0 22:48:45 10° NW 22:54:23 56° WSW 22:57:11 29° S
Cosmos 2218 Rocket 4.0 22:50:54 26° S 22:54:45 87° W 23:01:07 10° N
Cosmos 304 Rocket 4.0 22:50:26 10° NNW 22:55:16 66° ENE 22:58:03 25° SE
Cosmos 864 Rocket 4.5 22:52:05 27° S 22:55:45 88° ESE 23:02:06 10° N
Cosmos 2228 Rocket 3.7 22:52:28 10° N 22:56:58 51° ENE 22:59:19 26° SE
Cosmos 1420 Rocket 4.2 22:52:56 10° NNW 22:58:07 58° WSW 23:00:36 30° S
Cosmos 2366 rocket 4.0 22:56:35 26° SSW 23:00:27 84° W 23:06:51 10° N
Cosmos 1943 Rocket 2.2 22:55:26 10° NNW 23:01:10 87° ENE 23:04:40 24° SSE
Lacrosse 5 rocket 1.9 22:57:32 10° NW 23:01:30 54° NNE 23:05:15 10° ESE
Cosmos 1633 2.8 23:01:11 41° SSE 23:02:09 58° E 23:05:44 10° NNE
Landsat 4 4.0 22:59:07 10° NNE 23:02:51 54° ESE 23:03:59 38° SSE
SL-16 R/B 2.2 23:00:47 24° SSW 23:04:22 86° WNW 23:10:07 10° NNE
Cosmos 1821 Rocket 4.4 23:05:52 24° SSE 23:09:22 52° E 23:15:15 10° NNE
YAOGAN 11 4.1 23:09:09 35° S 23:10:58 74° WSW 23:15:25 10° NNW
Cosmos 1743 Rocket 3.6 23:12:36 35° S 23:14:20 69° E 23:18:40 10° NNE
Cosmos 332 Rocket 4.0 23:14:48 10° NNW 23:19:30 55° WSW 23:21:28 32° S
Cosmos 1331 Rocket 4.4 23:14:29 10° NNW 23:19:47 62° ENE 23:23:39 18° SE
Cosmos 1048 Rocket 4.1 23:19:32 30° S 23:22:07 64° ESE 23:27:20 10° NNE
USA 267 4.5 23:21:24 20° SW 23:23:00 21° SW 23:27:50 10° WNW
Meteor 2-3 Rocket 3.9 23:21:02 26° SSW 23:24:19 68° WNW 23:30:03 10° N
Helios 1A 3.6 23:24:53 30° SW 23:26:17 41° W 23:30:16 10° NNW
Cosmos 405 3.2 23:24:45 10° NNW 23:28:15 57° W 23:29:08 42° SSW
Meteor 1-29 4.1 23:25:14 10° NNE 23:28:18 31° E 23:29:10 27° SE
Meteor 1-10 Rocket 4.3 23:26:43 10° N 23:32:20 73° ENE 23:35:50 23° SSE
Cosmos 1452 Rocket 4.0 23:27:51 10° NW 23:32:51 44° WSW 23:35:06 28° SSW
CZ-4C R/B 3.0 23:27:29 10° NW 23:34:33 85° NE 23:42:47 10° SE
PSLV R/B 3.5 23:30:32 10° NNE 23:34:46 78° ESE 23:36:34 34° S
Meteor 2-6 Rocket 4.1 23:29:15 10° NNW 23:34:47 89° E 23:37:54 26° SSE
Cosmos 389 Rocket 4.1 23:31:52 10° N 23:35:00 29° ENE 23:37:05 16° ESE
COSMOS 2455 3.0 23:29:15 10° NW 23:35:09 55° WSW 23:38:24 26° S
Cosmos 1340 3.9 23:34:23 23° WSW 23:36:03 33° WNW 23:39:31 10° N
Cosmos 1110 Rocket 4.0 23:31:38 10° NNW 23:36:57 90° ENE 23:40:16 24° SSE
ALOS 2 4.5 23:35:27 15° WSW 23:37:04 18° W 23:40:08 10° NW
SL-16 R/B 3.6 23:32:28 10° SE 23:38:14 41° ENE 23:44:02 10° N
Cosmos 1603 4.0 23:36:25 27° S 23:39:20 56° ESE 23:44:56 10° NE
Resurs 1-4 Rocket 3.7 23:40:47 10° NE 23:45:08 25° E 23:48:45 13° SE
Cosmos 2369 Rocket 2.2 23:40:05 10° NW 23:45:37 64° WSW 23:48:49 26° S
Cosmos 1500 Rocket 3.8 23:44:49 30° SSW 23:46:52 61° WNW 23:51:14 10° N
Cosmos 44 4.0 23:43:37 13° WSW 23:47:16 43° NW 23:51:35 10° NNE
SeaSat 1 3.7 23:44:39 10° NE 23:48:59 30° ESE 23:51:20 20° SSE
ISS -2.0 23:51:01 20° SE 23:51:01 20° SE 23:52:58 10° E
Helios 1B rocket 2.4 23:49:24 10° NNE 23:53:33 81° WNW 23:55:23 32° SSW
ADEOS II 4.5 23:53:49 10° ENE 23:56:10 13° E 23:58:31 10° ESE
